RYR84KK LEAM-EBCI

Flight info

Callsign RYR84KK
Flight time N/A
Altitude 34000
Route AGIDO M192 ARPEX DCT BAZAS M192 BLN N865 VTB N867 RBO DCT OSTIX N867 DGO L176 LUSEM DCT LULUT DCT ADABI DCT BOKNO UN858 VANAD UN874 BAMES UT191 PODEM UN873 BAZOS DCT BELDI DCT VEKIN Z173 ARVOL
Aircraft B738/M-SDE2E3FGHIRWXY/LB1

Departure

Time 2026-04-30 21:33
Airport Almería Airport (LEAM)

Arrival

Time N/A
Airport Brussels South Charleroi Airport (EBCI)
Time Latitude Longitude Altitude Speed Heading
2026-04-30 21:18 36.84676 -2.37160 47 ft 0 kts 227°
2026-04-30 21:28 36.84662 -2.37173 45 ft 3 kts 200°
2026-04-30 21:28 36.84634 -2.37173 46 ft 6 kts 171°
2026-04-30 21:28 36.84584 -2.37257 45 ft 10 kts 251°
2026-04-30 21:29 36.84559 -2.37349 43 ft 10 kts 242°
2026-04-30 21:29 36.84435 -2.37553 42 ft 16 kts 253°
2026-04-30 21:30 36.84356 -2.37879 37 ft 24 kts 253°
2026-04-30 21:31 36.84243 -2.38341 31 ft 15 kts 253°
2026-04-30 21:31 36.84183 -2.38584 28 ft 14 kts 253°
2026-04-30 21:32 36.84096 -2.38782 26 ft 13 kts 193°
2026-04-30 21:32 36.84024 -2.38745 26 ft 11 kts 122°
2026-04-30 21:32 36.84006 -2.38660 27 ft 11 kts 101°
2026-04-30 21:32 36.84016 -2.38552 27 ft 16 kts 73°
2026-04-30 21:33 36.84110 -2.38169 32 ft 84 kts 73°
2026-04-30 21:33 36.84717 -2.35710 228 ft 196 kts 73°
2026-04-30 21:33 36.85101 -2.34100 815 ft 206 kts 72°
2026-04-30 21:34 36.85514 -2.32439 1942 ft 197 kts 72°
2026-04-30 21:34 36.86422 -2.28791 2864 ft 246 kts 72°
2026-04-30 21:34 36.86933 -2.26737 3769 ft 247 kts 72°
2026-04-30 21:35 36.87492 -2.24671 4558 ft 257 kts 62°
2026-04-30 21:35 36.88634 -2.22973 5378 ft 257 kts 34°
2026-04-30 21:35 36.90178 -2.21811 6174 ft 263 kts 28°
2026-04-30 21:35 36.91787 -2.20676 6947 ft 268 kts 27°
2026-04-30 21:36 36.93420 -2.19546 7686 ft 274 kts 27°
2026-04-30 21:36 36.95116 -2.18387 8420 ft 280 kts 26°
2026-04-30 21:37 37.00631 -2.19267 10178 ft 284 kts 306°
2026-04-30 21:37 37.01735 -2.21333 10677 ft 293 kts 295°
2026-04-30 21:37 37.02765 -2.23606 11143 ft 307 kts 295°
2026-04-30 21:37 37.03815 -2.25966 11809 ft 311 kts 294°
2026-04-30 21:38 37.04856 -2.28338 12618 ft 313 kts 294°
2026-04-30 21:38 37.05903 -2.30749 13328 ft 318 kts 295°
2026-04-30 21:38 37.06959 -2.33195 14015 ft 321 kts 295°
2026-04-30 21:38 37.08024 -2.35670 14661 ft 324 kts 295°
2026-04-30 21:39 37.09096 -2.38168 15296 ft 327 kts 295°
2026-04-30 21:39 37.10173 -2.40681 15914 ft 330 kts 295°
2026-04-30 21:39 37.11265 -2.43232 16528 ft 334 kts 295°
2026-04-30 21:39 37.12366 -2.45806 17135 ft 337 kts 295°
2026-04-30 21:40 37.13475 -2.48401 17742 ft 340 kts 295°
2026-04-30 21:40 37.14599 -2.51032 18323 ft 343 kts 295°
2026-04-30 21:40 37.15727 -2.53677 18835 ft 346 kts 295°
2026-04-30 21:40 37.16870 -2.56355 19299 ft 349 kts 295°
2026-04-30 21:41 37.18015 -2.59044 19815 ft 351 kts 295°
2026-04-30 21:41 37.19208 -2.61738 20210 ft 360 kts 301°
2026-04-30 21:41 37.20971 -2.64076 20396 ft 378 kts 317°
2026-04-30 21:41 37.23017 -2.66201 20613 ft 387 kts 316°
2026-04-30 21:42 37.25081 -2.68363 21148 ft 388 kts 316°
2026-04-30 21:42 37.27176 -2.70540 21532 ft 393 kts 316°
2026-04-30 21:42 37.29286 -2.72726 22018 ft 395 kts 316°
2026-04-30 21:42 37.31416 -2.74931 22446 ft 398 kts 316°
2026-04-30 21:43 37.33557 -2.77149 22886 ft 400 kts 316°
2026-04-30 21:43 37.35715 -2.79384 23322 ft 403 kts 316°
2026-04-30 21:43 37.37886 -2.81636 23705 ft 407 kts 316°
2026-04-30 21:43 37.40079 -2.83911 24071 ft 409 kts 316°
2026-04-30 21:44 37.42246 -2.86150 24443 ft 411 kts 316°
2026-04-30 21:44 37.44492 -2.88467 24811 ft 413 kts 316°
2026-04-30 21:44 37.46713 -2.90761 25250 ft 413 kts 316°
2026-04-30 21:44 37.48935 -2.93058 25616 ft 415 kts 316°
2026-04-30 21:45 37.51171 -2.95370 25933 ft 417 kts 316°
2026-04-30 21:45 37.53391 -2.97669 26282 ft 419 kts 316°
2026-04-30 21:45 37.55648 -3.00008 26608 ft 421 kts 316°
2026-04-30 21:45 37.57914 -3.02357 26943 ft 423 kts 316°
2026-04-30 21:46 37.60188 -3.04719 27275 ft 425 kts 316°
2026-04-30 21:46 37.62477 -3.07098 27591 ft 428 kts 316°
2026-04-30 21:46 37.64783 -3.09496 27875 ft 430 kts 316°
2026-04-30 21:46 37.67094 -3.11902 28207 ft 432 kts 316°
2026-04-30 21:47 37.69419 -3.14325 28563 ft 433 kts 316°
2026-04-30 21:47 37.71744 -3.16750 28908 ft 434 kts 316°
2026-04-30 21:47 37.74081 -3.19187 29172 ft 437 kts 316°
2026-04-30 21:47 37.76428 -3.21637 29456 ft 438 kts 316°
2026-04-30 21:48 37.78783 -3.24097 29755 ft 440 kts 316°
2026-04-30 21:48 37.81137 -3.26559 30014 ft 442 kts 316°
2026-04-30 21:48 37.83511 -3.29043 30277 ft 444 kts 316°
2026-04-30 21:48 37.85896 -3.31541 30507 ft 446 kts 316°
2026-04-30 21:49 37.88291 -3.34052 30745 ft 448 kts 316°
2026-04-30 21:49 37.90689 -3.36568 30988 ft 449 kts 316°
2026-04-30 21:49 37.93098 -3.39098 31257 ft 450 kts 316°
2026-04-30 21:49 37.95503 -3.41625 31546 ft 450 kts 316°
2026-04-30 21:50 37.97911 -3.44158 31851 ft 449 kts 316°
2026-04-30 21:50 38.00305 -3.46679 32115 ft 450 kts 316°
2026-04-30 21:50 38.02714 -3.49218 32415 ft 449 kts 316°
2026-04-30 21:50 38.05117 -3.51753 32721 ft 449 kts 316°
2026-04-30 21:51 38.07513 -3.54283 33013 ft 448 kts 316°
2026-04-30 21:51 38.09907 -3.56811 33298 ft 448 kts 316°
2026-04-30 21:51 38.12348 -3.59283 33570 ft 451 kts 322°
2026-04-30 21:51 38.15166 -3.61059 33889 ft 458 kts 338°
2026-04-30 21:52 38.18314 -3.61862 34072 ft 467 kts 353°
2026-04-30 21:52 38.21574 -3.61758 34086 ft 471 kts 359°
2026-04-30 21:52 38.28099 -3.61217 34084 ft 471 kts 360°
2026-04-30 21:53 38.34629 -3.60601 34072 ft 471 kts
2026-04-30 21:53 38.41165 -3.59969 34079 ft 471 kts
2026-04-30 21:54 38.47647 -3.59339 34068 ft 471 kts
2026-04-30 21:54 38.54173 -3.58705 34084 ft 471 kts
2026-04-30 21:55 38.60712 -3.58068 34092 ft 471 kts 360°
2026-04-30 21:55 38.67244 -3.57431 34078 ft 470 kts 360°
2026-04-30 21:56 38.73751 -3.56795 34084 ft 471 kts 360°
2026-04-30 21:56 38.80280 -3.56155 34076 ft 470 kts 360°
2026-04-30 21:57 38.86807 -3.55515 34087 ft 470 kts 359°
2026-04-30 21:57 38.93319 -3.54875 34080 ft 469 kts 359°
2026-04-30 21:58 38.99819 -3.54234 34080 ft 469 kts 359°
2026-04-30 21:58 39.06324 -3.53588 34080 ft 470 kts 359°
2026-04-30 21:59 39.12839 -3.52940 34079 ft 468 kts 359°
2026-04-30 22:00 39.22561 -3.51971 34078 ft 468 kts 359°
2026-04-30 22:00 39.32304 -3.50998 34096 ft 468 kts 358°
2026-04-30 22:01 39.38783 -3.50348 34074 ft 467 kts 358°
2026-04-30 22:01 39.45261 -3.49698 34084 ft 467 kts 358°
2026-04-30 22:02 39.51743 -3.49046 34074 ft 467 kts 359°
2026-04-30 22:02 39.58167 -3.48401 34069 ft 465 kts 358°
2026-04-30 22:03 39.64621 -3.47755 34081 ft 465 kts 358°
2026-04-30 22:03 39.71079 -3.47106 34072 ft 465 kts 358°
2026-04-30 22:04 39.77515 -3.46444 34080 ft 467 kts
2026-04-30 22:05 39.87171 -3.44442 34062 ft 468 kts
2026-04-30 22:05 39.93606 -3.43159 34064 ft 468 kts
2026-04-30 22:06 40.00040 -3.41879 34105 ft 468 kts
2026-04-30 22:06 40.09676 -3.39957 34079 ft 467 kts
2026-04-30 22:07 40.16100 -3.38673 34068 ft 467 kts
2026-04-30 22:07 40.22522 -3.37387 34085 ft 467 kts
2026-04-30 22:08 40.28937 -3.36100 34075 ft 466 kts
2026-04-30 22:08 40.35360 -3.34809 34072 ft 467 kts
2026-04-30 22:09 40.40698 -3.33734 34074 ft 467 kts
2026-04-30 22:09 40.47100 -3.32442 34084 ft 466 kts
2026-04-30 22:10 40.53503 -3.31148 34070 ft 466 kts
2026-04-30 22:10 40.59915 -3.29850 34076 ft 466 kts
2026-04-30 22:11 40.69526 -3.27899 34080 ft 466 kts
2026-04-30 22:12 40.75920 -3.26597 34073 ft 466 kts
2026-04-30 22:12 40.82327 -3.25292 34071 ft 466 kts
2026-04-30 22:13 40.88721 -3.23896 34072 ft 467 kts
2026-04-30 22:13 40.95115 -3.22466 34072 ft 467 kts
2026-04-30 22:14 41.01521 -3.21034 34068 ft 467 kts
2026-04-30 22:14 41.07929 -3.19598 34083 ft 467 kts
2026-04-30 22:15 41.14348 -3.18157 34080 ft 468 kts
2026-04-30 22:15 41.20760 -3.16715 34066 ft 468 kts
2026-04-30 22:16 41.27184 -3.15267 34069 ft 468 kts
2026-04-30 22:17 41.40024 -3.12365 34064 ft 468 kts
2026-04-30 22:17 41.49573 -3.10200 34071 ft 468 kts
2026-04-30 22:18 41.59199 -3.08017 34060 ft 467 kts
2026-04-30 22:19 41.68825 -3.05828 34057 ft 468 kts
2026-04-30 22:20 41.78452 -3.03620 34064 ft 470 kts
2026-04-30 22:20 41.88116 -3.01393 34059 ft 470 kts
2026-04-30 22:21 41.94543 -2.99909 34056 ft 470 kts
2026-04-30 22:21 42.00967 -2.98422 34049 ft 468 kts
2026-04-30 22:22 42.07393 -2.96932 34056 ft 468 kts
2026-04-30 22:22 42.13803 -2.95442 34041 ft 468 kts
2026-04-30 22:23 42.20212 -2.93948 34043 ft 467 kts
2026-04-30 22:23 42.26561 -2.92468 34044 ft 466 kts
2026-04-30 22:24 42.32944 -2.90975 34059 ft 466 kts
2026-04-30 22:24 42.39333 -2.89478 34076 ft 464 kts
2026-04-30 22:25 42.45512 -2.87096 34029 ft 471 kts 27°
2026-04-30 22:25 42.48171 -2.84470 34067 ft 477 kts 38°
2026-04-30 22:25 42.50698 -2.81519 34033 ft 480 kts 38°
2026-04-30 22:26 42.58217 -2.72554 34068 ft 480 kts 38°
2026-04-30 22:27 42.63185 -2.66552 34043 ft 477 kts 39°
2026-04-30 22:27 42.70630 -2.57529 34050 ft 479 kts 39°
2026-04-30 22:28 42.78082 -2.48466 34048 ft 479 kts 39°
2026-04-30 22:29 42.88003 -2.36355 34045 ft 479 kts 39°
2026-04-30 22:31 43.05326 -2.15059 34047 ft 475 kts 41°
2026-04-30 22:32 43.17574 -1.99900 34020 ft 475 kts 41°
2026-04-30 22:33 43.29735 -1.84768 34025 ft 474 kts 41°
2026-04-30 22:35 43.43493 -1.72484 34031 ft 472 kts 34°
2026-04-30 22:36 43.57133 -1.60156 34020 ft 469 kts 34°
2026-04-30 22:37 43.68053 -1.50247 34010 ft 473 kts 34°
2026-04-30 22:38 43.79066 -1.40210 34021 ft 474 kts 34°
2026-04-30 22:39 43.87304 -1.32672 34026 ft 472 kts 34°
2026-04-30 22:40 44.03725 -1.17570 34040 ft 471 kts 35°
2026-04-30 22:41 44.17356 -1.04957 34038 ft 471 kts 35°
2026-04-30 22:43 44.33633 -0.89803 34046 ft 469 kts 35°
2026-04-30 22:44 44.44967 -0.80889 34048 ft 469 kts 25°
2026-04-30 22:45 44.62785 -0.69979 34056 ft 464 kts 25°
2026-04-30 22:47 44.80078 -0.59343 34049 ft 459 kts 25°
2026-04-30 22:48 44.91756 -0.52121 34051 ft 459 kts 25°
2026-04-30 22:49 45.09243 -0.41246 34052 ft 454 kts 26°
2026-04-30 22:51 45.26487 -0.30450 34051 ft 450 kts 27°
2026-04-30 22:52 45.35069 -0.25051 34053 ft 450 kts 27°
2026-04-30 22:53 45.46520 -0.17818 34047 ft 450 kts 27°
2026-04-30 22:53 45.55097 -0.12379 34044 ft 450 kts 27°
2026-04-30 22:55 45.69380 -0.03282 34050 ft 450 kts 27°
2026-04-30 22:56 45.79841 0.03413 34041 ft 451 kts 26°
2026-04-30 22:57 45.94157 0.12622 34045 ft 451 kts 26°
2026-04-30 22:58 46.05632 0.20041 34043 ft 454 kts 26°
2026-04-30 22:59 46.22876 0.31253 34040 ft 454 kts 26°